Погода в Аликово

Россия / Чувашская Республика     55°44′16″N   46°44′49″E
темп.,
°C
ветер,
м/с
пор.,
м/с
влажн.,
%
обл.,
%
осадки,
мм/ч
давл.,
гПа
погр.,
м
10 мая, пн
пн1000:00+11з2294100 0.0 101323
03:00+12ссв1191100 0.4 101416
06:00+12св2389100 0.3 101665
09:00+16св2376100 0.3 1018560
12:00+17ссв5478100 0.0 1020642
15:00+17с6777100 0.0 1021650
18:00+16ссв698696 0.3 1022438
21:00+12ссв6119398 0.6 1024303
11 мая, вт
вт1100:00+10ссв51097100 0.1 1024238
03:00+9ссв51098100 0.1 1025226
06:00+10св5109461 0.0 1025254
09:00+16всв677870 0.0 1026493
12:00+20всв566397 0.0 1026842
15:00+22в4555100 0.0 10261312
18:00+19всв3572100 0.0 102693
21:00+16всв3377100 0.0 102746
12 мая, ср
ср1200:00+14всв4585100 0.0 102775
03:00+13всв458399 0.0 102775
06:00+14в3783100 0.0 1027179
09:00+19вюв5763100 0.0 1027512
12:00+23юв594734 0.0 10272042
15:00+23юв585049 0.0 10262581
18:00+18ююв366991 0.0 1026126
21:00+15юв3360100 0.0 102749
13 мая, чт
чт1300:00+14вюв236495 0.0 102723
03:00+13в337818 0.0 102736
06:00+15вюв387831 0.0 1026199
09:00+20юв59565 0.0 1026633
12:00+22юв794658 0.0 10251337
15:00+23юв5750100 0.0 10241397
18:00+19вюв41167100 0.0 1023276
21:00+17вюв41271100 0.0 1023297
14 мая, пт
пт1400:00+17юв4106988 0.0 1023201
03:00+14ююв3776100 0.0 1023102
06:00+16ююв3976100 0.0 1023220
09:00+21ююв57566 0.0 1023521
12:00+25ююв68446 0.0 10211240
15:00+25юв68493 0.0 10211474
18:00+22ююв4867100 0.0 1020179
21:00+17ююв4773100 0.0 1019106